Weather History for Rawlins, WY

Change the Weather History Date:

Friday, February 8, 2013

  Actual Average Record
Temperature  
Mean Temperature 33 °F 22 °F  
Max Temperature 46 °F 32 °F 52 °F (1954)
Min Temperature 19 °F 12 °F -29 °F (1989)
Degree Days  
Heating Degree Days 32 43  
Month to date heating degree days 282 345  
Since 1 July heating degree days 4648 5144  
Cooling Degree Days 0 0  
Month to date cooling degree days 0 0  
Year to date cooling degree days 0 0  
Moisture  
Dew Point 19 °F    
Average Humidity 60    
Maximum Humidity 92    
Minimum Humidity 27    
Precipitation  
Precipitation 0.04 in 0.02 in 0.30 in (1959)
Month to date precipitation 0.05 0.11  
Year to date precipitation 0.22 0.47  
Sea Level Pressure  
Sea Level Pressure 29.78 in    
Wind  
Wind Speed 9 mph (NNE)    
Max Wind Speed 23 mph    
Max Gust Speed 28 mph    
Visibility 8 miles    
Events Fog , Snow    
T = Trace of Precipitation, MM = Missing Value Source: NWS Daily Summary

Daily Weather History Graph

Daily Weather History Graph

Search for Another Location

Airport:

Trip Planner

Search our weather history database for the weather conditions in past years. The results will help you decide how hot, cold, wet, or windy it might be!

Date:

Astronomy

Feb. 08, 2013 Rise Set
Actual Time 7:12 AM MST 5:33 PM MST
Civil Twilight 6:44 AM MST 6:02 PM MST
Nautical Twilight 6:11 AM MST 6:35 PM MST
Astronomical Twilight 5:38 AM MST 7:07 PM MST
Moon 5:44 AM MST (2/8) 4:09 PM MST (2/8)
Length of Visible Light 11h 18m
Length of Day
10h 20m
Waning Crescent, 3% of the Moon is Illuminated
Feb 8
Waning Crescent
Feb 10
New
Feb 17
First Quarter
Feb 25
Full
Mar 4
Last Quarter

Hourly Weather History & Observations

Time (MST) Temp. Windchill Dew Point Humidity Pressure Visibility Wind Dir Wind Speed Gust Speed Precip Events Conditions
12:53 AM 27.0 °F 17.3 °F 10.9 °F 51% 29.96 in 10.0 mi SW 10.4 mph - N/A   Clear
1:53 AM 28.9 °F 15.8 °F 10.9 °F 47% 29.94 in 10.0 mi SW 20.7 mph 27.6 mph N/A   Clear
2:53 AM 28.0 °F 16.5 °F 10.0 °F 47% 29.94 in 10.0 mi SSW 15.0 mph - N/A   Clear
3:53 AM 28.9 °F 17.3 °F 10.9 °F 47% 29.93 in 10.0 mi SSW 16.1 mph - N/A   Clear
4:53 AM 30.0 °F 17.9 °F 12.0 °F 47% 29.93 in 10.0 mi SW 18.4 mph 26.5 mph N/A   Clear
5:53 AM 26.1 °F 19.4 °F 10.9 °F 53% 29.97 in 10.0 mi Variable 5.8 mph - N/A   Clear
6:53 AM 27.0 °F 16.7 °F 12.0 °F 53% 29.97 in 10.0 mi SW 11.5 mph 17.3 mph N/A   Clear
7:53 AM 28.0 °F 22.8 °F 10.9 °F 49% 29.96 in 10.0 mi SSW 4.6 mph - N/A   Clear
8:53 AM 34.0 °F 28.8 °F 12.0 °F 40% 29.88 in 10.0 mi Variable 5.8 mph - N/A   Clear
9:53 AM 35.1 °F 29.3 °F 12.0 °F 39% 29.89 in 10.0 mi East 6.9 mph - N/A   Clear
10:53 AM 34.0 °F 27.2 °F 12.0 °F 40% 29.88 in 10.0 mi ENE 8.1 mph - N/A   Overcast
11:53 AM 37.9 °F 33.5 °F 12.9 °F 36% 29.82 in 10.0 mi ESE 5.8 mph - N/A   Overcast
12:53 PM 41.0 °F 38.0 °F 14.0 °F 33% 29.76 in 10.0 mi East 4.6 mph - N/A   Overcast
1:53 PM 43.0 °F 39.5 °F 14.0 °F 31% 29.71 in 10.0 mi Variable 5.8 mph 18.4 mph N/A   Overcast
2:53 PM 45.0 °F 38.9 °F 12.9 °F 27% 29.67 in 10.0 mi South 12.7 mph 21.9 mph N/A   Mostly Cloudy
3:53 PM 41.0 °F 33.9 °F 15.1 °F 35% 29.69 in 10.0 mi SW 12.7 mph - N/A   Overcast
4:53 PM 34.0 °F 23.8 °F 25.0 °F 70% 29.73 in 10.0 mi West 16.1 mph - N/A   Overcast
5:53 PM 34.0 °F 31.0 °F 23.0 °F 64% 29.73 in 10.0 mi WSW 3.5 mph - N/A   Overcast
6:53 PM 34.0 °F - 23.0 °F 64% 29.72 in 10.0 mi Calm Calm - N/A   Overcast
7:53 PM 32.0 °F 26.4 °F 21.9 °F 66% 29.72 in 10.0 mi ENE 5.8 mph - N/A   Overcast
8:44 PM 32.0 °F 23.6 °F 24.8 °F 75% 29.71 in 4.0 mi NE 10.4 mph - 0.00 in Snow Light Snow
8:48 PM 30.2 °F 21.3 °F 26.6 °F 86% 29.71 in 1.5 mi NE 10.4 mph 17.3 mph 0.00 in Snow Light Snow
8:53 PM 30.0 °F 21.1 °F 26.1 °F 85% 29.71 in 0.8 mi NE 10.4 mph - 0.00 in Snow Light Snow
9:01 PM 30.2 °F 23.4 °F 28.4 °F 93% 29.71 in 0.5 mi North 6.9 mph - 0.02 in Fog , Snow Snow
9:13 PM 28.4 °F 22.2 °F 28.4 °F 100% 29.71 in 0.8 mi NNE 5.8 mph - 0.04 in Snow Light Snow
9:22 PM 28.4 °F 23.3 °F 28.4 °F 100% 29.70 in 1.5 mi NNE 4.6 mph - 0.04 in Snow Light Snow
9:25 PM 30.2 °F - 28.4 °F 93% 29.70 in 2.0 mi Calm Calm - 0.04 in Snow Light Snow
9:40 PM 28.4 °F 23.3 °F 28.4 °F 100% 29.69 in 3.0 mi North 4.6 mph - 0.04 in Snow Light Snow
9:53 PM 27.0 °F 21.6 °F 25.0 °F 92% 29.70 in 9.0 mi North 4.6 mph - 0.04 in   Overcast
10:37 PM 26.6 °F 20.0 °F 24.8 °F 93% 29.69 in 4.0 mi NW 5.8 mph - 0.00 in Snow Light Snow
10:53 PM 28.9 °F 22.8 °F 27.0 °F 92% 29.68 in 9.0 mi North 5.8 mph - 0.00 in   Overcast
11:00 PM 26.6 °F 21.2 °F 26.6 °F 100% 29.67 in 9.0 mi NNE 4.6 mph - 0.00 in Snow Light Snow
11:53 PM 21.0 °F 12.4 °F 19.9 °F 96% 29.69 in 10.0 mi East 6.9 mph - 0.00 in   Scattered Clouds